Location: Calvera
(42.3882°N, 0.6137°E)
Time: 14:46:53
(UTC+00:00)

Cosmos 967 Rocket - Pass Details

Date: 28 October 2020
Orbit: 953 x 985 km, 65.8° (Epoch: 24 November)

Event Time Altitude Azimuth Distance (km) Brightness Sun altitude
Exits shadow 04:37:12 13° 328° (NNW) 2,456 6.3 -20.7°
Maximum altitude 04:42:52 89° 239° (WSW) 962 4.4 -19.6°
Drops below altitude 10° 04:49:07 10° 150° (SSE) 2,673 7.2 -18.5°
Sets 04:51:39 0° 151° (SSE) 3,614 7.9 -18.0°
